Location: Juzet
(42.9779°N, 0.7597°E)
Time: 18:34:46
(UTC+00:00)

Lacrosse 5 - Pass Details

Date: 14 July 2020
Orbit: 717 x 720 km, 57.0° (Epoch: 09 August)

Event Time Altitude Azimuth Distance (km) Brightness Sun altitude
Exits shadow 01:49:49 - 279° (W) 2,464 4.4 -20.9°
Reaches altitude 10° 01:50:40 10° 284° (WNW) 2,201 4.2 -20.8°
Maximum altitude 01:54:46 24° 338° (NNW) 1,466 3.9 -20.5°
Drops below altitude 10° 01:58:52 10° 32° (NNE) 2,206 5.6 -20.1°
Sets 02:01:41 0° 46° (NE) 3,128 6.5 -19.9°
